SQ7FJB-10 Weather Reports


Display with metric or nautical units.
time (UTC)temp
F
wind
direction
speed
MPH
gust
MPH
rain 1hr
in
rain 24hr
in
rain mn
in
humidity
%
barometer
mb
20260506214015 61 195 1.0 1.0 0.00 0.00 0.00 66 1313.7
20260506211003 61 153 0.0 0.0 0.00 0.00 0.00 66 1313.7
20260506203951 62 110 0.0 0.0 0.00 0.00 0.00 68 1313.6
20260506200950 62 149 0.0 0.0 0.00 0.00 0.00 68 1313.6
20260506193937 62 216 0.0 0.0 0.00 0.00 0.00 67 1313.7
20260506190937 65 198 0.0 0.0 0.00 0.00 0.00 58 1313.5
20260506183925 66 300 0.0 0.0 0.00 0.00 0.00 55 1313.3
20260506180913 68 177 0.0 0.0 0.00 0.00 0.00 55 1313.1
20260506173900 69 167 0.0 0.0 0.00 0.00 0.00 54 1313.0
20260506170900 70 174 0.0 0.0 0.00 0.00 0.00 51 1313.0
20260506163847 72 150 1.0 1.0 0.00 0.00 0.00 47 1313.1
20260506160847 73 161 4.0 4.0 0.00 0.00 0.00 44 1313.1
20260506153835 74 222 2.0 2.0 0.00 0.00 0.00 42 1313.2
20260506150834 74 173 6.0 8.0 0.00 0.00 0.00 40 1313.2
20260506143822 75 127 3.0 3.0 0.00 0.00 0.00 40 1313.3
20260506140758 75 159 6.0 8.0 0.00 0.00 0.00 40 1313.4
20260506133745 74 150 4.0 5.0 0.00 0.00 0.00 42 1313.4
20260506130745 76 165 6.0 6.0 0.00 0.00 0.00 39 1313.3
20260506123732 75 150 7.0 8.0 0.00 0.00 0.00 41 1313.5
20260506120733 74 156 10.0 10.0 0.00 0.00 0.00 41 1313.6
20260506113720 75 191 9.0 11.0 0.00 0.00 0.00 42 1313.6
20260506110708 74 169 10.0 11.0 0.00 0.00 0.00 44 1313.8
20260506103655 71 144 6.0 6.0 0.00 0.00 0.00 48 1313.7
20260506100654 72 220 3.0 3.0 0.00 0.00 0.00 47 1313.6
20260506093642 71 184 6.0 8.0 0.00 0.00 0.00 47 1313.6
20260506090630 71 90 2.0 2.0 0.00 0.00 0.00 48 1313.6
20260506083630 69 184 5.0 5.0 0.00 0.00 0.00 50 1313.4
20260506080617 69 170 6.0 7.0 0.00 0.00 0.00 52 1313.4
20260506070605 66 186 6.0 9.0 0.00 0.00 0.00 56 1313.1
20260506060540 61 192 5.0 5.0 0.00 0.00 0.00 63 1313.0
20260506050527 57 168 1.0 1.0 0.00 0.00 0.00 61 1313.2
20260506043515 53 186 0.0 0.0 0.00 0.00 0.00 68 1313.2
20260506040502 48 154 0.0 0.0 0.00 0.00 0.00 73 1313.1
20260506033450 48 138 0.0 0.0 0.00 0.00 0.00 73 1313.1
20260506030450 49 154 0.0 0.0 0.00 0.00 0.00 70 1313.3
20260506023437 49 138 0.0 0.0 0.00 0.00 0.00 73 1313.4
20260506020437 50 186 0.0 0.0 0.00 0.00 0.00 70 1313.4
20260506013425 52 168 0.0 0.0 0.00 0.00 0.00 69 1313.5
20260506010425 51 115 0.0 0.0 0.00 0.00 0.00 65 1313.5
20260506003412 50 150 0.0 0.0 0.00 0.00 0.00 68 1313.6
20260506000412 52 150 0.0 0.0 0.00 0.00 0.00 65 1313.6
20260505233400 53 186 0.0 0.0 0.00 0.00 0.00 60 1313.8
20260505230359 56 192 0.0 0.0 0.00 0.00 0.00 53 1313.8
20260505223347 57 192 0.0 0.0 0.00 0.00 0.00 45 1313.9
20260505220335 56 228 0.0 0.0 0.00 0.00 0.00 47 1313.8